TimeEDT,TemperatureF,Dew PointF,Humidity,Sea Level PressureIn,VisibilityMPH,Wind Direction,Wind SpeedMPH,Gust SpeedMPH,PrecipitationIn,Events,Conditions,WindDirDegrees,DateUTC
12:15 AM,42.8,37.4,81,30.07,10.0,Calm,Calm,-,N/A,,Scattered Clouds,0,2013-03-23 04:15:00
12:35 AM,41.0,39.2,93,30.07,10.0,Calm,Calm,-,N/A,,Clear,0,2013-03-23 04:35:00
12:55 AM,39.2,37.4,93,30.07,10.0,Calm,Calm,-,N/A,,Clear,0,2013-03-23 04:55:00
1:15 AM,37.4,37.4,100,30.07,10.0,Calm,Calm,-,N/A,,Clear,0,2013-03-23 05:15:00
2:15 AM,37.4,37.4,100,30.06,10.0,Calm,Calm,-,N/A,,Clear,0,2013-03-23 06:15:00
2:35 AM,37.4,37.4,100,30.06,10.0,Calm,Calm,-,N/A,,Clear,0,2013-03-23 06:35:00
2:55 AM,37.4,37.4,100,30.06,10.0,Calm,Calm,-,N/A,,Clear,0,2013-03-23 06:55:00
3:15 AM,35.6,35.6,100,30.06,10.0,Calm,Calm,-,N/A,,Clear,0,2013-03-23 07:15:00
3:35 AM,37.4,37.4,100,30.05,10.0,Calm,Calm,-,N/A,,Clear,0,2013-03-23 07:35:00
3:55 AM,35.6,35.6,100,30.05,10.0,Calm,Calm,-,N/A,,Clear,0,2013-03-23 07:55:00
4:15 AM,37.4,37.4,100,30.05,10.0,Calm,Calm,-,N/A,,Scattered Clouds,0,2013-03-23 08:15:00
4:35 AM,37.4,37.4,100,30.03,10.0,Calm,Calm,-,N/A,,Mostly Cloudy,0,2013-03-23 08:35:00
4:55 AM,37.4,37.4,100,30.03,10.0,Calm,Calm,-,N/A,,Mostly Cloudy,0,2013-03-23 08:55:00
5:15 AM,39.2,39.2,100,30.02,10.0,Calm,Calm,-,N/A,,Overcast,0,2013-03-23 09:15:00
5:55 AM,37.4,37.4,100,30.03,10.0,Calm,Calm,-,N/A,,Scattered Clouds,0,2013-03-23 09:55:00
6:15 AM,37.4,37.4,100,30.03,10.0,Calm,Calm,-,N/A,,Mostly Cloudy,0,2013-03-23 10:15:00
6:55 AM,39.2,39.2,100,30.03,10.0,Calm,Calm,-,N/A,,Mostly Cloudy,0,2013-03-23 10:55:00
7:15 AM,37.4,37.4,100,30.04,10.0,Calm,Calm,-,N/A,,Clear,0,2013-03-23 11:15:00
7:35 AM,39.2,39.2,100,30.03,10.0,Calm,Calm,-,N/A,,Scattered Clouds,0,2013-03-23 11:35:00
7:55 AM,41.0,41.0,100,30.03,10.0,Calm,Calm,-,N/A,,Clear,0,2013-03-23 11:55:00
8:15 AM,42.8,42.8,100,30.04,10.0,Calm,Calm,-,N/A,,Scattered Clouds,0,2013-03-23 12:15:00
8:35 AM,42.8,42.8,100,30.04,10.0,Calm,Calm,-,N/A,,Mostly Cloudy,0,2013-03-23 12:35:00
8:55 AM,46.4,39.2,76,30.03,10.0,East,3.5,-,N/A,,Mostly Cloudy,80,2013-03-23 12:55:00
9:35 AM,50.0,35.6,58,30.06,10.0,NNE,5.8,-,N/A,,Overcast,20,2013-03-23 13:35:00
9:55 AM,50.0,35.6,58,30.06,10.0,North,5.8,-,N/A,,Overcast,10,2013-03-23 13:55:00
10:15 AM,50.0,35.6,58,30.05,10.0,NNE,8.1,-,N/A,,Overcast,30,2013-03-23 14:15:00
10:55 AM,50.0,35.6,58,30.06,10.0,NNE,12.7,16.1,N/A,,Overcast,20,2013-03-23 14:55:00
11:15 AM,48.2,35.6,62,30.06,10.0,North,10.4,-,N/A,,Overcast,360,2013-03-23 15:15:00
11:35 AM,46.4,37.4,71,30.07,10.0,North,8.1,-,N/A,,Overcast,360,2013-03-23 15:35:00
11:55 AM,44.6,37.4,76,30.07,10.0,North,9.2,-,N/A,,Overcast,360,2013-03-23 15:55:00
12:15 PM,44.6,39.2,81,30.07,10.0,NNW,9.2,-,N/A,,Overcast,340,2013-03-23 16:15:00
12:35 PM,42.8,41.0,93,30.06,10.0,NNE,4.6,-,N/A,Rain,Rain,20,2013-03-23 16:35:00
12:55 PM,42.8,42.8,100,30.06,7.0,Calm,Calm,-,N/A,Rain,Light Rain,0,2013-03-23 16:55:00
6:35 PM,48.2,46.4,93,29.93,10.0,ENE,5.8,-,N/A,,Overcast,70,2013-03-23 22:35:00
6:55 PM,48.2,46.4,93,29.93,10.0,East,4.6,-,N/A,,Overcast,90,2013-03-23 22:55:00
7:15 PM,48.2,46.4,93,29.96,10.0,Calm,Calm,-,N/A,,Overcast,0,2013-03-23 23:15:00
7:35 PM,48.2,46.4,93,29.95,10.0,East,3.5,-,N/A,,Overcast,80,2013-03-23 23:35:00
7:55 PM,48.2,46.4,93,29.96,10.0,NNE,5.8,-,N/A,,Overcast,30,2013-03-23 23:55:00
8:15 PM,48.2,46.4,93,29.98,10.0,NNE,5.8,-,N/A,,Overcast,30,2013-03-24 00:15:00
8:55 PM,48.2,46.4,93,29.99,10.0,North,4.6,-,N/A,,Overcast,10,2013-03-24 00:55:00
9:15 PM,48.2,46.4,93,29.97,10.0,NNE,5.8,-,N/A,,Overcast,30,2013-03-24 01:15:00
9:55 PM,46.4,46.4,100,29.97,10.0,NNE,4.6,-,N/A,,Mostly Cloudy,20,2013-03-24 01:55:00
10:15 PM,46.4,46.4,100,29.95,10.0,NE,4.6,-,N/A,,Overcast,40,2013-03-24 02:15:00
10:35 PM,46.4,46.4,100,29.95,10.0,NE,4.6,-,N/A,,Overcast,50,2013-03-24 02:35:00
10:55 PM,48.2,46.4,93,29.95,10.0,East,3.5,-,N/A,,Overcast,90,2013-03-24 02:55:00
11:15 PM,48.2,46.4,93,29.94,10.0,East,3.5,-,N/A,,Overcast,100,2013-03-24 03:15:00
11:35 PM,48.2,48.2,100,29.93,10.0,Calm,Calm,-,N/A,,Overcast,0,2013-03-24 03:35:00
11:55 PM,50.0,48.2,94,29.92,10.0,Calm,Calm,-,N/A,,Overcast,0,2013-03-24 03:55:00